User: anonymous
Location: Prairie State College
(41.5244°N, 87.6382°W)
Time: 02:56:49
(UTC-05:00)
Language:

Cosmos 1943 - Orbit

View from above orbital plane
View from above orbital plane
View from above satellite
View from above satellite

Ground track
Ground track

The orbit data is extracted from the following two-line orbital elements,

1 19119U 88039A   14261.49370847 -.00000212  00000-0 -84879-4 0  2388
2 19119 071.0049 047.2489 0009952 152.0896 264.1961 14.14947266360253
Epoch (UTC): 18 September 2014 11:50:56
Eccentricity: 0.0009952
inclination: 71.0049°
perigee height: 835 km
apogee height: 849 km
right ascension of ascending node: 47.2489°
argument of perigee: 152.0896°
revolutions per day: 14.14947266
mean anomaly at epoch: 264.1961°
orbit number at epoch: 36025

The dashed part of the orbit path shows where the satellite is in the earth's shadow,  

DLR